This is the latest recevied weather packets stored in our database for station/object ED1ZAI-14. If no packets are shown the sender has not sent any weather packets the latest 10 day(s).
| Time | Temp. | Humidity | Pressure | Rain* | Wind** | Luminosity | Snow |
|---|---|---|---|---|---|---|---|
| 1788084258 | 18.89° C | 59% | 812.7 hPa | - | - | - | - |
| 1788082458 | 17.78° C | 64% | 812.7 hPa | - | - | - | - |
| 1788080658 | 17.22° C | 74% | 812.7 hPa | - | - | - | - |
| 1788078858 | 16.67° C | 86% | 812.6 hPa | - | - | - | - |
| 1788077058 | 15.56° C | 90% | 812.5 hPa | - | - | - | - |
| 1788075258 | 14.44° C | 85% | 812.3 hPa | - | - | - | - |
| 1788073458 | 13.33° C | 90% | 812.3 hPa | - | - | - | - |
| 1788071658 | 12.78° C | 94% | 812.2 hPa | - | - | - | - |
| 1788069858 | 11.67° C | 100% | 812.1 hPa | - | - | - | - |
| 1788068058 | 11.11° C | 100% | 812 hPa | - | - | - | - |
| 1788066258 | 11.11° C | 100% | 812 hPa | - | - | - | - |
| 1788064458 | 11.11° C | 100% | 812 hPa | - | - | - | - |
| 1788062658 | 11.67° C | 97% | 812.1 hPa | - | - | - | - |
| 1788060857 | 12.22° C | 94% | 812.2 hPa | - | - | - | - |
| 1788059057 | 12.22° C | 93% | 812.4 hPa | - | - | - | - |
| 1788057257 | 12.22° C | 93% | 812.6 hPa | - | - | - | - |
| 1788055457 | 12.22° C | 93% | 812.7 hPa | - | - | - | - |
| 1788053657 | 12.22° C | 93% | 812.8 hPa | - | - | - | - |
| 1788051859 | 12.22° C | 88% | 812.9 hPa | - | - | - | - |
| 1788050058 | 12.78° C | 87% | 813.1 hPa | - | - | - | - |
| 1788048258 | 12.78° C | 83% | 813.2 hPa | - | - | - | - |
| 1788046458 | 12.78° C | 78% | 813.4 hPa | - | - | - | - |
| 1788044658 | 13.33° C | 75% | 813.5 hPa | - | - | - | - |
| 1788042858 | 13.89° C | 73% | 813.6 hPa | - | - | - | - |
| 1788041058 | 12.78° C | 75% | 813.6 hPa | - | - | - | - |
* Rain since midnight (hover to see other rain measurements)
** Current wind speed in m/s (hover to see current wind gust speed)